Location: Centerville
(32.8776°N, 96.6203°W)
Time: 16:01:23
(UTC+00:00)

Meteor 1-24 Rocket - Pass Details

Date: 17 June 2021
Orbit: 791 x 926 km, 81.2° (Epoch: 26 July)

Event Time Altitude Azimuth Distance (km) Brightness Sun altitude
Exits shadow 04:19:44 39° 68° (ENE) 1,172 4.3 -26.0°
Drops below altitude 10° 04:23:56 10° 23° (NNE) 2,395 6.5 -26.5°
Sets 04:26:26 0° 17° (NNE) 3,346 7.4 -26.8°
